Weather in Shatsk

Russia / Tula Oblast     54°08′01″N   37°50′26″E
temp.,
°C
wind,
m/s
gust,
m/s
humid.,
%
clouds,
%
prec.,
mm/h
press.,
hPa
HPBL,
m
11 may, tue
tue1100:00+7nne5137816 0.0 1025375
03:00+6nne514866 0.0 1025323
06:00+7nne614865 0.0 1025367
09:00+12ne711755 0.0 1024476
12:00+16ne796818 0.0 1024856
15:00+19ene796368 0.0 10231281
18:00+16ese5983100 0.8 1024689
21:00+11se389157 1.1 1026322
12 may, wed
wed1200:00+8ese35900 0.0 1027106
03:00+7se22900 0.0 102734
06:00+8e238667 0.0 102779
09:00+9ese2490100 0.6 1027208
12:00+9nw2593100 2.3 1024333
15:00+8wsw4698100 6.6 1021239
18:00+8wsw139695 1.1 1020176
21:00+7se37978 1.2 1021165
13 may, thu
thu1300:00+6e3797100 0.0 1020136
03:00+6e4119595 0.0 1020232
06:00+8e41094100 0.2 1019249
09:00+12ese3680100 0.2 1018316
12:00+15ese467276 0.0 1017710
15:00+16sse346685 0.2 1016891
18:00+16sse477749 1.3 1015574
21:00+12sse369054 3.3 1016112
14 may, fri
fri1400:00+11s2293100 0.0 101733
03:00+11se229354 0.0 101719
06:00+12se2595100 0.9 1017137
09:00+14ese4994100 1.8 1016304
12:00+20se7107087 0.5 10151167
15:00+22se61170100 2.1 10131369
18:00+20sse7137697 5.4 1012576
21:00+18s5148475 10.9 1012387
15 may, sat
sat1500:00+14sse399073 0.6 1011178
03:00+14sse2294100 0.7 101023
06:00+14se2791100 0.0 1010173
09:00+15ssw2693100 1.4 1009170
12:00+21sse5767100 0.1 1009974
15:00+21s697439 2.3 10091139
18:00+20ssw597650 1.1 1008583
21:00+15ssw31089100 4.3 1008228